#timestamp,LO_Frequency,Hit,StdDev 
1515387615.2,286047002.5,N
1515387635.0,286046999.2,N
1515387635.9,286046999.2,N
1515387655.7,286046994.2,N
1515387675.6,286046991.5,N
1515387695.4,286046987.6,Y
1515387715.3,286046991.0,P
1515387735.1,286046989.6,N
1515387755.8,286046989.7,N
1515387775.7,286046993.1,N
1515387795.5,286046995.6,N
1515387815.4,286046997.9,N
1515387835.2,286046996.0,N
1515387855.0,286046992.4,N
1515387855.9,286046992.4,N
1515387875.8,286046991.5,N
1515387895.6,286046992.6,N
1515387915.5,286046988.7,Y
1515387935.3,286046994.4,P
1515387955.1,286046991.6,P
1515387975.9,286046992.8,P
1515387995.7,286046993.9,Y
1515388015.6,286047000.8,P
1515388035.4,286047000.7,N
1515388055.2,286047005.6,N
1515388075.1,286047008.8,N
1515388076.0,286047008.8,N
1515388095.8,286047007.1,N
1515388115.6,286047002.4,N
1515388135.5,286047003.5,N
1515388155.3,286047001.3,N
1515388175.2,286047005.6,N
1515388195.0,286047005.3,N
1515388195.9,286047005.3,N
1515388215.7,286047005.7,N
1515388235.6,286047003.6,N
1515388255.4,286047006.7,N
1515388275.3,286047007.7,N
1515388295.1,286047008.5,N
1515388296.0,286047008.5,N
1515388315.8,286047008.3,N
1515388335.7,286047008.3,N
1515388355.5,286047007.6,N
1515388375.4,286047006.3,N
1515388395.2,286047008.0,N
1515388415.0,286047005.8,N
1515388415.9,286047005.8,N
1515388435.8,286047004.4,N
1515388485.6,286047007.9,E
1515388495.6,286047004.6,N
1515388515.4,286046993.7,P
1515388535.2,286046992.8,N
1515388555.1,286046999.5,N
1515388556.0,286046999.5,N
1515388575.8,286046999.8,N
1515388595.7,286046999.9,N
1515388615.5,286046999.7,N
1515388635.3,286047000.5,N
1515388655.2,286046998.2,N
1515388675.0,286047007.3,N
1515388675.9,286047007.3,N
1515388695.8,286047002.9,N
1515388715.6,286046998.3,N
1515388735.4,286047000.8,N
1515388755.3,286046999.4,N
1515388775.1,286047003.2,N
1515388795.8,286046999.9,N
1515388815.7,286046997.3,N
1515388835.5,286047001.1,N
1515388855.4,286047002.2,N
1515388875.2,286047001.4,N
1515388895.0,286047000.0,N
1515388895.9,286047000.0,N
1515388915.8,286047001.9,N
1515388935.6,286047004.7,N
1515388955.5,286047007.6,N
1515388975.3,286047005.2,N
1515388995.1,286047008.0,N
1515389015.9,286047011.2,Y
1515389035.7,286047006.5,P
1515389055.5,286047009.0,P
1515389075.4,286047006.5,N
1515389095.2,286047006.9,N
1515389115.1,286047005.7,N
1515389116.0,286047005.7,N
1515389135.8,286047008.9,Y
1515389155.6,286047000.4,P
1515389175.5,286047002.3,N
1515389195.3,286047007.2,P
1515389215.2,286047002.4,N
1515389235.9,286047000.6,N
1515389255.7,286047001.3,N
1515389275.6,286047002.9,N
1515389295.4,286046996.6,N
1515389315.2,286046998.6,N
1515389335.1,286046995.9,N
1515389336.0,286046995.9,N
1515389355.8,286046991.8,N
1515389375.7,286046990.4,N
1515389395.5,286046991.9,N
1515389415.3,286046995.3,N
1515389435.2,286046994.2,N
1515389455.0,286046991.9,N
1515389455.9,286046991.9,N
1515389475.8,286046993.6,N
1515389495.6,286046994.8,N
1515389515.4,286046993.3,N
1515389535.3,286046994.1,N
1515389555.1,286046999.2,N
1515389575.8,286046999.3,N
1515389595.7,286047002.5,N
1515389615.5,286047001.0,N
1515389635.4,286046995.0,N
1515389655.2,286046994.0,N
1515389675.0,286046996.0,N
1515389675.9,286046996.0,N
1515389695.8,286046995.2,N
1515389715.6,286047002.3,N
1515389735.5,286047002.5,N
1515389755.3,286047001.1,N
1515389775.1,286046999.9,N
1515389795.9,286046997.9,N
1515389815.7,286047000.0,N
1515389835.5,286047005.9,N
1515389855.4,286047005.4,N
1515389875.2,286047002.5,N
1515389895.1,286046999.9,N
1515389896.0,286046999.9,N
1515389915.8,286046998.8,N
1515389935.6,286047002.8,N
1515389955.5,286046999.7,N
1515389975.3,286047004.1,N
1515389995.2,286047002.2,N
1515390015.9,286047004.6,N
1515390035.7,286047006.5,N
1515390055.6,286047010.8,N
1515390075.4,286047000.1,N
1515390095.2,286047000.9,N
1515390115.1,286046998.9,N
1515390116.0,286046998.9,N
1515390135.8,286047002.6,N
1515390155.7,286047002.5,N
1515390175.5,286047002.5,N
1515390195.3,286046999.7,N
1515390215.2,286047004.0,N
1515390235.0,286047001.4,N
1515390235.9,286047001.4,N
1515390255.8,286047001.8,N
1515390275.6,286047002.7,N
1515390295.4,286047001.6,N
1515390315.3,286047004.1,N
1515390335.1,286046999.2,N
1515390355.8,286046994.9,N
1515390375.7,286046995.6,N
1515390395.5,286046997.6,N
1515390415.4,286046993.8,N
1515390435.2,286046997.3,N
1515390455.0,286047002.6,N
1515390455.9,286047002.6,N
1515390475.8,286046998.1,N
1515390495.6,286046998.5,N
1515390515.5,286046999.4,N
1515390535.3,286047002.6,N
1515390555.1,286046994.9,N
1515390575.9,286046996.0,N
1515390595.7,286046997.4,N
1515390615.6,286046996.1,N
1515390635.4,286046993.6,N
1515390655.2,286046993.6,N
1515390675.1,286046993.8,N
1515390676.0,286046993.8,N
1515390695.8,286046997.3,N
1515390715.6,286046997.0,N
1515390735.5,286046999.5,N
1515390755.3,286046996.6,N
1515390775.2,286046999.0,N
1515390795.9,286046997.2,N
1515390815.7,286046998.2,N
1515390835.6,286046997.2,N
1515390855.4,286046997.3,N
1515390875.2,286046998.7,N
1515390895.1,286046998.6,N
1515390896.0,286046998.6,N
1515390915.8,286046998.2,N
1515390935.7,286047001.3,N
1515390955.5,286047001.4,N
1515390975.3,286047003.5,N
1515390995.2,286047003.0,N
1515391015.0,286047002.1,N
1515391015.9,286047002.1,N
1515391035.8,286047000.0,N
1515391055.6,286046998.9,N
1515391075.4,286046999.7,N
1515391095.3,286047001.4,N
1515391115.1,286047005.5,N
1515391135.8,286047002.7,N
1515391155.7,286046996.7,N
1515391175.5,286047002.7,N
1515391195.4,286047000.1,N
